Weather in Nemerichi

Russia / Bryansk Oblast     53°50′46″N   34°00′07″E
temp.,
°C
wind,
m/s
gust,
m/s
humid.,
%
clouds,
%
prec.,
mm/h
press.,
hPa
HPBL,
m
13 april, tue
tue1300:00+10ese3128997 0.0 1021317
03:00+9se2889100 0.0 1021146
06:00+8sse269292 0.0 102294
09:00+13se3672100 0.0 1022224
12:00+18se465382 0.0 10211053
15:00+19sse584727 0.0 10201927
18:00+16s3764100 0.6 1019378
21:00+13s2575100 0.7 1020127
14 april, wed
wed1400:00+12se2279100 0.0 101939
03:00+10se2784100 0.0 1018196
06:00+10se2889100 0.0 1018245
09:00+12sse258397 0.0 1018378
12:00+15s366799 0.2 10171168
15:00+16s3557100 0.8 10161433
18:00+13se4773100 0.5 1016308
21:00+10sw1287100 1.7 101637
15 april, thu
thu1500:00+9ese2592100 0.0 1016117
03:00+9ene1192100 0.0 101523
06:00+9e2893100 0.1 1016248
09:00+9e2891100 0.3 1016300
12:00+11ese2580100 0.1 1016332
15:00+10e3887100 0.3 1015392
18:00+10ene2790100 0.0 1015340
21:00
16 april, fri
fri1600:00+8n239493 0.0 101462
03:00+8ne31092100 0.1 1013326
06:00+9ene3997100 2.8 1013368
09:00+9ne3894100 4.6 1014304
12:00+14e467395 0.0 10141048
15:00+14e4875100 2.0 1014964
18:00+13ese51175100 4.6 1014484
21:00+9ne249699 0.8 101873
17 april, sat
sat1700:00+10e41192100 5.8 1018667
03:00+9ene41094100 6.0 1018697
06:00+8ene51193100 0.6 1019650
09:00+8ene51189100 0.8 1021745
12:00+10ene51083100 0.0 1022904
15:00+10ene51080100 0.1 10231152
18:00+12ene4106873 0.0 10231220
21:00+8ne412715 0.0 1025432